Location: Heidgraben
(53.7081°N, 9.6576°E)
Time: 01:06:07
(UTC+00:00)

Cosmos 2056 Rocket - Visible Passes

Search period start: 24 October 2020 00:00
Search period end: 03 November 2020 00:00
Orbit: 743 x 799 km, 74.0° (Epoch: 23 October)

Date Brightness Start Highest point End Pass type
(mag) Time Alt. Az. Time Alt. Az. Time Alt. Az.
24 Oct 4.4 16:56:39 10° SW 17:01:41 50° WNW 17:06:41 10° NNE visible
24 Oct 6.1 18:42:12 10° WNW 18:45:06 15° NNW 18:47:59 10° N visible
25 Oct 5.8 18:04:54 10° W 18:08:33 19° NW 18:12:13 10° N visible
26 Oct 5.5 17:27:52 10° W 17:32:06 25° NW 17:36:21 10° N visible
27 Oct 5.0 16:51:04 10° WSW 16:55:45 34° NW 17:00:26 10° NNE visible
27 Oct 6.1 18:37:51 10° NW 18:39:33 11° NNW 18:41:15 10° N visible
28 Oct 6.0 18:00:09 10° WNW 18:02:56 14° NNW 18:05:43 10° N visible
29 Oct 5.8 17:22:49 10° W 17:26:23 19° NW 17:29:58 10° N visible
30 Oct 5.4 16:45:45 10° W 16:49:56 24° NW 16:54:07 10° N visible
31 Oct 6.1 17:55:52 10° NW 17:57:23 11° NNW 17:58:56 10° N visible
01 Nov 5.9 17:18:05 10° WNW 17:20:46 14° NNW 17:23:27 10° N visible
02 Nov 5.7 16:40:43 10° W 16:44:13 18° NW 16:47:43 10° N visible
